Charleston, WV

9:10 PM EST on December 12, 2019 (GMT -0500)
Yeager Airport

Weather History for KCRW - June, 2019

Change the Weather History Date:

Wednesday, June 5, 2019

  Actual Average Record
Temperature  
Mean Temperature 70 °F 69 °F  
Max Temperature 77 °F 80 °F 97 °F (1925)
Min Temperature 62 °F 59 °F 40 °F (1945)
Degree Days  
Heating Degree Days 0 1  
Month to date heating degree days 2 5  
Since 1 June heating degree days 2 5  
Since 1 July heating degree days 4146 4470  
Cooling Degree Days 5 5  
Month to date cooling degree days 14 24  
Year to date cooling degree days 210 134  
Since 1 June cooling degree days 14 24  
Growing Degree Days 20 (Base 50)    
Moisture  
Dew Point 65 °F    
Average Humidity 84    
Maximum Humidity 93    
Minimum Humidity 74    
Precipitation  
Precipitation 0.80 in 0.15 in 1.75 in (2017)
Month to date precipitation 0.80 0.78  
Year to date precipitation 23.03 18.92  
Sea Level Pressure  
Sea Level Pressure 29.89 in    
Wind  
Wind Speed 5 mph (SSW)    
Max Wind Speed 17 mph    
Max Gust Speed 23 mph    
Visibility 7 miles    
Events Rain , Thunderstorm    
T = Trace of Precipitation, MM = Missing Value Source: NWS Daily Summary

Daily Weather History Graph

Daily Weather History Graph

Search for Another Location

Airport or City:

Astronomy

Jun. 05, 2019 Rise Set
Actual Time 6:03 AM EDT 8:46 PM EDT
Civil Twilight 5:31 AM EDT 9:18 PM EDT
Nautical Twilight 4:52 AM EDT 9:57 PM EDT
Astronomical Twilight 4:08 AM EDT 10:41 PM EDT
Moon 8:07 AM EDT (6/5) 11:12 PM EDT (6/5)
Length of Visible Light 15h 46m
Length of Day
14h 43m
Waxing Crescent, 6% of the Moon is Illuminated
Jun 5
Waxing Crescent
Jun 10
First Quarter
Jun 17
Full
Jun 25
Last Quarter
Jul 2
New

Hourly Weather History & Observations

Time (EDT) Temp. Dew Point Humidity Pressure Visibility Wind Dir Wind Speed Gust Speed Precip Events Conditions
12:54 AM 63.0 °F 60.1 °F 90% 29.97 in 10.0 mi Calm Calm - N/A   Clear
1:54 AM 63.0 °F 60.1 °F 90% 29.96 in 10.0 mi Calm Calm - N/A   Scattered Clouds
2:54 AM 63.0 °F 61.0 °F 93% 29.95 in 10.0 mi Calm Calm - N/A   Overcast
3:54 AM 63.0 °F 61.0 °F 93% 29.94 in 9.0 mi Calm Calm - 0.00 in Rain Light Rain
4:54 AM 63.0 °F 61.0 °F 93% 29.93 in 7.0 mi Calm Calm - 0.00 in   Overcast
5:54 AM 64.0 °F 61.0 °F 90% 29.92 in 9.0 mi Calm Calm - 0.00 in Rain Light Rain
6:54 AM 64.0 °F 61.0 °F 90% 29.93 in 10.0 mi Calm Calm - 0.01 in Rain Light Rain
7:47 AM 64.0 °F 62.1 °F 93% 29.95 in 6.0 mi SE 3.5 mph - 0.09 in   Overcast
7:54 AM 64.9 °F 63.0 °F 93% 29.93 in 4.0 mi Calm Calm - 0.09 in   Mostly Cloudy
8:54 AM 68.0 °F 64.0 °F 87% 29.92 in 7.0 mi SW 4.6 mph - 0.00 in   Overcast
9:20 AM 68.0 °F 63.0 °F 84% 29.93 in 7.0 mi SSE 8.1 mph - N/A Thunderstorm Thunderstorm
9:54 AM 69.1 °F 63.0 °F 81% 29.90 in 7.0 mi South 6.9 mph - 0.00 in Rain , Thunderstorm Light Thunderstorms and Rain
10:28 AM 66.9 °F 64.0 °F 90% 29.97 in 2.0 mi NNW 11.5 mph 23.0 mph 0.01 in Rain , Thunderstorm Thunderstorms and Rain
10:54 AM 66.9 °F 64.0 °F 90% 29.94 in 2.0 mi Calm Calm - 0.24 in Rain , Thunderstorm Thunderstorms and Rain
11:24 AM 66.9 °F 64.9 °F 93% 29.95 in 2.0 mi South 4.6 mph - 0.12 in Rain Rain
11:54 AM 66.9 °F 66.0 °F 97% 29.92 in 2.0 mi SE 4.6 mph - 0.16 in Rain Light Rain
12:07 PM 66.9 °F 66.0 °F 97% 29.94 in 3.0 mi South 3.5 mph - 0.01 in Rain Light Rain
12:54 PM 70.0 °F 66.0 °F 87% 29.90 in 3.0 mi South 8.1 mph - 0.02 in   Overcast
1:41 PM 70.0 °F 66.9 °F 90% 29.91 in 5.0 mi SSW 8.1 mph - 0.00 in Rain Light Rain
1:54 PM 70.0 °F 66.9 °F 90% 29.90 in 2.0 mi SSW 9.2 mph - 0.02 in Rain Rain
2:54 PM 69.1 °F 66.0 °F 90% 29.86 in 6.0 mi South 6.9 mph - 0.22 in Rain Light Rain
3:35 PM 71.1 °F 66.9 °F 87% 29.86 in 10.0 mi Variable 5.8 mph - 0.00 in   Overcast
3:54 PM 72.0 °F 66.0 °F 81% 29.84 in 10.0 mi SW 10.4 mph - 0.00 in   Overcast
4:54 PM 75.0 °F 68.0 °F 79% 29.82 in 10.0 mi SW 10.4 mph - N/A   Overcast
5:00 PM 75.0 °F 68.0 °F 79% 29.84 in 10.0 mi SW 10.4 mph - N/A   Mostly Cloudy
5:54 PM 77.0 °F 68.0 °F 74% 29.80 in 10.0 mi SW 11.5 mph - N/A   Partly Cloudy
6:54 PM 77.0 °F 68.0 °F 74% 29.78 in 10.0 mi SW 8.1 mph - N/A   Mostly Cloudy
7:54 PM 75.9 °F 68.0 °F 76% 29.78 in 10.0 mi SSW 9.2 mph - N/A   Scattered Clouds
8:54 PM 75.0 °F 68.0 °F 79% 29.78 in 10.0 mi South 4.6 mph - N/A   Mostly Cloudy
9:54 PM 73.9 °F 69.1 °F 85% 29.79 in 7.0 mi Variable 3.5 mph - 0.00 in Rain Light Rain
10:33 PM 73.0 °F 69.1 °F 87% 29.82 in 7.0 mi SSW 3.5 mph - 0.00 in Thunderstorm Thunderstorm
10:54 PM 71.1 °F 69.1 °F 93% 29.82 in 7.0 mi Calm Calm - 0.00 in Thunderstorm Thunderstorm
11:54 PM 72.0 °F 69.1 °F 91% 29.82 in 9.0 mi SSW 4.6 mph - 0.03 in Rain Light Rain